Voltar ao catálogo

STARLINK-3776

AtivoComunicaçõesVLEO
NORAD 52288·PAYLOAD·🇺🇸 United States

Lançado Apr 21, 2022 de Cape Canaveral Space Force Station

Loading…

Próximas Passagens (próximas 24 horas)

TLE

AtualizadoSource: CelesTrak SupGP

Época: Sep 15, 2026, 02:47 UTC

1 52288C 22041AD  26258.11645833  .00041316  00000+0  12201-2 0  2588
2 52288  53.1575 316.5648 0001336  95.8150 283.4160 15.34385223    18

Acompanhe STARLINK-3776 em tempo real com AllMySat

Download on the App Store